Regional Weather Roundup
Issued by NWS Green Bay, WI

Home | Current Version | Previous Version | Graphics & Text | Print | Product List | Glossary Off
Versions: 1 2 3 4 5 6 7 8 9 10 11 12 13 14 15 16 17 18 19 20 21 22 23 24 25 26 27 28 29 30 31 32 33 34 35 36 37 38 39 40 41 42 43 44 45 46 47 48 49 50

000
ASUS43 KGRB 221711
RWRGRB

NORTH-CENTRAL AND NORTHEAST WISCONSIN REGIONAL WEATHER ROUNDUP
NATIONAL WEATHER SERVICE GREEN BAY WI
1100 AM CST SUN JAN 22 2017

WIZ005-009-010>012-018-019-221800-
NORTH CENTRAL WISCONSIN

CITY           SKY/WX    TMP DP  RH WIND       PRES   REMARKS
IRONWOOD       FOG       35  34  96 W6        29.65R VSB 1/4
MANITOWISH WTR CLOUDY    34  34 100 NW5       29.62S FOG
ARBOR VITAE    CLOUDY    37  36  98 NW5       29.62S FOG
EAGLE RIVER    CLOUDY    36  36 100 CALM      29.62R
LAND O LAKES   CLOUDY    37  37 100 CALM      29.63R
RHINELANDER    FOG       36  35  96 CALM      29.62S VSB 1/4
PHILLIPS       CLOUDY    34  34 100 NW3       29.64R FOG
ANTIGO         FOG       34  34 100 CALM      29.63R VSB 1
TOMAHAWK       CLOUDY    36  35  96 W3        29.63F
MERRILL        CLOUDY    36  36 100 CALM        N/A
$$

WIZ013-073-221800-
NORTHEAST WISCONSIN

CITY           SKY/WX    TMP DP  RH WIND       PRES   REMARKS
IRON MOUNTAIN  CLOUDY    36  34  92 CALM      29.62R FOG
MARINETTE      NOT AVBL
OCONTO         CLOUDY    36  36  99 W3        29.64S VSB 1
$$

WIZ017-030-035>037-045-221800-
CENTRAL WISCONSIN

CITY           SKY/WX    TMP DP  RH WIND       PRES   REMARKS
MEDFORD        CLOUDY    34  34  99 CALM      29.64R FOG
WAUSAU         CLOUDY    35  35 100 W5        29.63S FOG
MOSINEE        CLOUDY    36  36 100 W3        29.65R FOG
MARSHFIELD     FOG       35  34  96 W5        29.64R VSB 1/4
WISC RAPIDS    CLOUDY    36  36 100 NW3       29.66R
STEVENS POINT  CLOUDY    34  34 100 CALM      29.66R FOG
WAUPACA        CLOUDY    38  37  97 CALM      29.66R FOG
SHAWANO        CLOUDY    38  37  96 CALM      29.65S FOG
CLINTONVILLE   FOG       36  36 100 SW3       29.65R VSB 1/4
WAUTOMA        FOG       38  38 100 CALM      29.66  VSB 1/4
$$

WIZ038-039-048-051-221800-
FOX VALLEY

CITY           SKY/WX    TMP DP  RH WIND       PRES   REMARKS
NWS GREEN BAY  FOG       38  38 100 SW5       29.65S VSB 3/4
APPLETON       FOG       37  37 100 VRB6      29.63R VSB 1/4
OSHKOSH        FOG       37  37 100 S5        29.65S VSB 1/4
FOND DU LAC    CLOUDY    39  36  89 SW3       29.66R FOG
$$

WIZ022-050-052-221800-
EAST CENTRAL WISCONSIN

CITY           SKY/WX    TMP DP  RH WIND       PRES   REMARKS
EPHRAIM        FOG       38  38 100 CALM      29.63S VSB<1/4
WASHINGTON ISL FOG       37  37 100 CALM      29.64S VSB<1/4
STURGEON BAY   FOG       38  38 100 W3        29.65S VSB 1/4
MANITOWOC      CLOUDY    39  39 100 MISG      29.66R FOG
SHEBOYGAN      CLOUDY    41  39  93 W7        29.65S
$$

LMZ563-521-522-541>543-221800-
LAKESHORE

STATION/POSITION TIME  TEMP    WIND        PRES    VSBY  WAVE
                       AIR SEA DIR/SP/G                  HT/PER
                 (UTC) (F)     (DEG/KT/KT) (MB)    (MI)  (FT/S)
SHEBOYGAN LKSHOR 1700   42     260/  4/  4 1004.1F
KEWAUNEE LKSHORE 1648   38     270/  2/  5 1003.7R
NORTHPORT PIER   1640   35        CALM     1004.1S
SISTER BAY LKSHO 1635   39        CALM       N/A
MENOMINEE LKSHOR 1648          200/  1/  3 1003.1S
$$



USA.gov is the U.S. government's official web portal to all federal, state and local government web resources and services.